This is the latest recevied weather packets stored in our database for station/object CE1RLP-31. If no packets are shown the sender has not sent any weather packets the latest 10 day(s).
| Time | Temp. | Humidity | Pressure | Rain* | Wind** | Luminosity | Snow |
|---|---|---|---|---|---|---|---|
| 1777553552 | 8.89° C | 8% | 1097.5 hPa | - | - | - | - |
| 1777552652 | 8.33° C | 8% | 1097.3 hPa | - | - | - | - |
| 1777551752 | 7.78° C | 8% | 1097.2 hPa | - | - | - | - |
| 1777550851 | 7.22° C | 8% | 1097.2 hPa | - | - | - | - |
| 1777549951 | 6.67° C | 9% | 1097 hPa | - | - | - | - |
| 1777549054 | 6.11° C | 9% | 1096.8 hPa | - | - | - | - |
| 1777548151 | 5.56° C | 9% | 1096.7 hPa | - | - | - | - |
| 1777547251 | 5.56° C | 9% | 1096.6 hPa | - | - | - | - |
| 1777546351 | 5° C | 9% | 1096.5 hPa | - | - | - | - |
| 1777545451 | 5° C | 8% | 1096.4 hPa | - | - | - | - |
| 1777544551 | 5° C | 9% | 1096.2 hPa | - | - | - | - |
| 1777543651 | 5° C | 9% | 1096.1 hPa | - | - | - | - |
| 1777542752 | 5° C | 9% | 1096.1 hPa | - | - | - | - |
| 1777541852 | 5° C | 9% | 1096.1 hPa | - | - | - | - |
| 1777540952 | 5° C | 9% | 1096 hPa | - | - | - | - |
| 1777540052 | 5.56° C | 9% | 1095.9 hPa | - | - | - | - |
| 1777539152 | 5.56° C | 9% | 1096 hPa | - | - | - | - |
| 1777538252 | 5.56° C | 8% | 1096 hPa | - | - | - | - |
| 1777537352 | 5.56° C | 9% | 1095.9 hPa | - | - | - | - |
| 1777536452 | 5.56° C | 9% | 1095.9 hPa | - | - | - | - |
| 1777535551 | 6.11° C | 9% | 1096 hPa | - | - | - | - |
| 1777534651 | 6.11° C | 9% | 1096.1 hPa | - | - | - | - |
| 1777533751 | 6.11° C | 8% | 1096.1 hPa | - | - | - | - |
| 1777532851 | 6.11° C | 8% | 1096.2 hPa | - | - | - | - |
| 1777531951 | 6.11° C | 9% | 1096.2 hPa | - | - | - | - |
* Rain since midnight (hover to see other rain measurements)
** Current wind speed in m/s (hover to see current wind gust speed)